Regional Weather Roundup
Issued by NWS Charleston, SC

Current Version | Previous Version | Text Only | Print | Product List | Glossary Off
Versions: 1 2 3 4 5 6 7 8 9 10 11 12 13 14 15 16 17 18 19 20 21 22 23 24 25 26 27 28 29 30 31 32 33 34 35 36 37 38 39 40 41 42 43 44 45 46 47 48 49 50

000
ASUS42 KCHS 250928
RWRCHS

REGIONAL WEATHER ROUNDUP
NATIONAL WEATHER SERVICE CHARLESTON SC
500 AM EDT WED MAY 25 2016

NOTE: "FAIR" INDICATES FEW OR NO CLOUDS BELOW 12,000 FEET WITH NO
SIGNIFICANT WEATHER AND/OR OBSTRUCTIONS TO VISIBILITY.

NOT ALL STATIONS ARE QUALITY CONTROLLED. USE DATA WITH CAUTION...
ESPECIALLY DEWPOINT OBSERVATIONS.

SCZ027-030-031-034>040-042>050-251000-
...SOUTHEAST SOUTH CAROLINA...

CITY           SKY/WX    TMP DP  RH WIND       PRES   REMARKS
N CHARLESTON   CLOUDY    66  62  87 CALM      30.18S
WATERFRONT PRK   N/A     71  68  90 CALM      30.17S
MOUNT PLEASANT FAIR      63  63 100 CALM      30.19S
JOHNS ISLAND   FAIR      64  63  94 CALM      30.19S
PINOPOLIS        N/A     70  64  83 VRB2      30.09F
MONCKS CORNER  FAIR      57  54  88 CALM      30.18F
SUMMERVILLE    FAIR      61  61 100 CALM      30.19F
BEAUFORT MCAS  CLOUDY    67  65  93 CALM      30.18F
BEAUFORT ARPT  FAIR      68  66  94 CALM      30.18S
HILTON HEAD IS PTCLDY    66  66 100 CALM      30.19S
WALTERBORO     MOSUNNY   63  63 100 CALM      30.19S
ALLENDALE      FAIR      64  63  94 CALM      30.18S

...SOUTHERN MIDLANDS AND PEE DEE...

CITY           SKY/WX    TMP DP  RH WIND       PRES   REMARKS
GEORGETOWN     FAIR      55  54  94 CALM      30.20S
KINGSTREE      FAIR      59  55  88 CALM      30.19S
ORANGEBURG     FOG       63  61  93 CALM      30.18S VSB 1/2
BARNWELL       FAIR      63  63 100 CALM      30.19S FOG
AIKEN          FAIR      64  61  88 SW3       30.22R
MANNING        FAIR      61  61 100 CALM      30.18S
COLUMBIA       CLEAR     65  61  87 CALM      30.17S
SUMTER         CLEAR     63  60  91 CALM      30.16S
FLORENCE       CLEAR     62  58  86 CALM      30.18F
MYRTLE BEACH   CLEAR     63  54  72 CALM      30.21S
N MYRTLE BEACH CLEAR     61  60  97 CALM      30.19R

$$

GAZ063-065-086>088-099>101-113>116-118-119-134>141-150-251000-
...SOUTHEAST GEORGIA...

CITY           SKY/WX    TMP DP  RH WIND       PRES   REMARKS
SAVANNAH ARPT  PTCLDY    66  64  93 CALM      30.19S
HUNTER AAF     PTCLDY    67  67 100 W2        30.16S
FORT STEWART   CLEAR     67  62  84 CALM      30.15F
STATESBORO     CLEAR     63  63 100 CALM      30.19R
SYLVANIA       MOSUNNY   66  64  93 CALM      30.19S
CLAXTON        FAIR      62  62 100 CALM      30.18S FOG

...CSRA...CENTRAL AND FAR SOUTHEAST GEORGIA...

CITY           SKY/WX    TMP DP  RH WIND       PRES   REMARKS
THOMSON        CLEAR     60  60  97 CALM      30.22S
AUGUSTA-BUSH   PTCLDY    58  58 100 CALM      30.17R FOG
AUGUSTA-DANIEL CLEAR     69  59  70 SW5       30.18S
SWAINSBORO     FAIR      61  59  94 CALM      30.19R
VIDALIA        CLEAR     63  61  94 CALM      30.18S
EASTMAN        FOG       57  57 100 CALM      30.20R VSB 3/4
HAZLEHURST     FAIR      68  62  80 CALM      30.16S
ALMA           CLOUDY    61  61 100 CALM      30.17F
WAYCROSS       CLOUDY    65  63  92 CALM      30.17S
JESUP          FAIR      55  54  94 CALM      30.18S
BAXLEY         FAIR      63  63 100 CALM      30.17S
BRUNSWICK        N/A     64  63  94 CALM      30.18F FOG
SAINT SIMONS   CLEAR     70  66  87 CALM      30.17F

$$

SCZ027-028-034-036>038-045-046-048>050-GAZ119-141-251000-
...LAKE AND SUPPLEMENTAL COASTAL OBSERVATIONS...

STATION/POSITION TIME  TEMP    WIND        PRES    WAVE   SWELL
                       AIR SEA DIR/SP/G            HT/PER HT/PER/DIR
                 (UTC) (F)     (DEG/KT/KT) (MB)    (FT/S) (FT/S/D)
WINYAH BAY       0800   63     310/  2     1021.0S
LAKE MURRAY      0900   68      CALM  /  1 1021.0F
ACE BASIN NERRS  0800   67        CALM     1022.0S
FORT PULASKI     0900   72 75  290/  2/  3 1022.3S
SAPELO ISLAND    0900   73     240/  4     1022.0S

$$

ANZ835-935-AMZ111-154-330-350-352-354-370-450-454-472-251000-
...C-MAN AND BUOY OBSERVATIONS...

STATION/POSITION TIME  TEMP    WIND        PRES    WAVE   SWELL
                       AIR SEA DIR/SP/G            HT/PER HT/PER/DIR
                 (UTC) (F)     (DEG/KT/KT) (MB)    (FT/S) (FT/S/D)
BUOY 41004       0850   75 75  210/  4/  4 1022.2R   2/ 8   2/ 8
BUOY 41008       0850   76 75  200/  8/  8 1021.8R   2/ 8   2/ 70/ 8
FOLLY BEACH CMAN 0900   72     250/  4/  5 1022.3S
CAPERS NEARSHORE 0908   74 74  230/  4/  6 1022.1R
FRIPP NEARSHORE  0908   75 75  210/  6/  8 1021.5F


STATION/POSITION TIME  TEMP    WIND        PRES    WAVE   SWELL
                       AIR SEA DIR/SP/G            HT/PER HT/PER/DIR
                 (UTC) (F)     (DEG/KT/KT) (MB)    (FT/S) (FT/S/D)
5E ST. MARYS GA  0821      77                N/A     2/ 9
FRYING PAN BUOY  0900   75 76  250/ 10/ 12 1022.1R
BUOY 41025       0850   68 67  270/  8/ 10 1021.6R   3/ 9   3/120/ 9
CAPE LOOKOUT NC  0900   69     270/  7/  8 1021.7R
BUOY 41002       0850   73 78   40/  6/  8 1022.6R   4/ 8   3/ 50/ 8
BUOY 41010       0820   76 78  120/  4/  6 1022.2R
ST AUGUSTINE FL  0900   78 78  150/ 13/ 14 1022.4F


$$




USA.gov is the U.S. government's official web portal to all federal, state and local government web resources and services.